Die Mitgliedschaft ist kostenlos – mit vollem Zugang zu allen Funktionen; Upgrades bieten Extras wie Bannerwerbung und Newsletter-Platzierungen. ✅ Signatur-Links sind jetzt für alle frei. Teilen Sie Ihre eigenen Gedanken und Erfahrungen; bei Verstößen können Konten geschlossen werden.

Willkommen!

Durch Ihre Registrierung bei uns können Sie mit anderen Mitgliedern unserer Community diskutieren, teilen und private Nachrichten austauschen.

Jetzt anmelden!

Live-Überblick: .DE-Domainauktionen

Möchten Sie eine Premium-Domain .DE kaufen? Unser Live-Auktionsfeed für Domains bietet Ihnen eine einfache Möglichkeit, die perfekte Webadresse für Ihr Unternehmen zu sichern. Mit einer großen Auswahl an Angeboten finden Sie Domains mit SEO-Potenzial, Markenfähigkeit und hoher Wiedererkennbarkeit.

Seien Sie dabei und bieten Sie auf Ihre Wunsch-Domain .DE! Consultdomain.de-Mitglieder können unsere Plattform nutzen, um wertvolle Domains zu finden und in Echtzeit zu konkurrieren. Verpassen Sie nicht diese spannende Gelegenheit, Ihre Online-Präsenz zu stärken.

Live 29.606 auctions 0 selected
Sammlungen
Domain DL Current bid Gebote Ends in Plattform REC RE WFAY DW
mietkoch-catering.de 17 0,00€ 0 Sep. 7, 19:00 0 0
mietory.de 7 0,00€ 0 Sep. 7, 19:00 2 .com .de 2
mikroabenteuererleben.de 21 0,00€ 0 Sep. 7, 19:00 0 0
mikrokonto.de 10 0,00€ 0 Sep. 7, 19:00 2 .com .de 0
mindfulnaturewalks.de 18 0,00€ 0 Sep. 7, 19:00 0 3
minimalluxus.de 12 0,00€ 0 Sep. 7, 19:00 0 2
minov-stav.de 10 0,00€ 0 Sep. 7, 19:00 0 0
mirco-a-stammer.de 15 0,00€ 0 Sep. 7, 19:00 1 .com 0
mircoastammer.de 13 0,00€ 0 Sep. 7, 19:00 1 .com 3
mirco-stammer.de 13 0,00€ 0 Sep. 7, 19:00 1 .com 0
mircostammer.de 12 0,00€ 0 Sep. 7, 19:00 1 .com 3
mischok-online.de 14 0,00€ 0 Sep. 7, 19:00 0 0
mister-dampf.de 12 0,00€ 0 Sep. 7, 19:00 0 0
mitdenwellendurchsleben.de 23 0,00€ 0 Sep. 7, 19:00 0 0
mittelalterreisen.de 17 0,00€ 0 Sep. 7, 19:00 0 4
mkg-in-reinbek.de 14 0,00€ 0 Sep. 7, 19:00 1 .com 0
mkg-reinbek.de 11 0,00€ 0 Sep. 7, 19:00 1 .com 0
mkg-wentorf.de 11 0,00€ 0 Sep. 7, 19:00 1 .com 0
m-load.de 6 0,00€ 0 Sep. 7, 19:00 5 .com .de .net 0
mobileinnovationsconference.de 27 0,00€ 0 Sep. 7, 19:00 2 .de .org 3
mobil-mit-mia.de 13 0,00€ 0 Sep. 7, 19:00 0 0
mobinergy.de 9 0,00€ 0 Sep. 7, 19:00 7 .co.uk .com .de 0
moderndiva.de 10 0,00€ 0 Sep. 7, 19:00 4 .com .net .org 2
modulhaus24.de 11 0,00€ 0 Sep. 7, 19:00 2 .com .de 0
moebel-bodewig.de 14 0,00€ 0 Sep. 7, 19:00 0 0
moebelhaus-aktion.de 17 0,00€ 0 Sep. 7, 19:00 1 .com 0
momentsupply.de 12 0,00€ 0 Sep. 7, 19:00 5 .app .com .de 2
monacococktail.de 14 0,00€ 0 Sep. 7, 19:00 2 .com .de 2
monacolift.de 10 0,00€ 0 Sep. 7, 19:00 2 .com .de 2
mono-heaven.de 11 0,00€ 0 Sep. 7, 19:00 0 0
monsterdeal24.de 13 0,00€ 0 Sep. 7, 19:00 2 .com .de 0
morgensonne-jahnsdorf.de 21 0,00€ 0 Sep. 7, 19:00 0 0
moritzgathmann.de 14 0,00€ 0 Sep. 7, 19:00 0 3
mostfinance.de 11 0,00€ 0 Sep. 7, 19:00 12 .app .biz .click 2
motivationsarmband.de 18 0,00€ 0 Sep. 7, 19:00 2 .de .se 2
moto-mind.de 9 0,00€ 0 Sep. 7, 19:00 2 .com .de 0
mot-rechtenbach.de 15 0,00€ 0 Sep. 7, 19:00 0 0
moverank.de 8 0,00€ 0 Sep. 7, 19:00 2 .com .xyz 2
mqv-atoms.de 9 0,00€ 0 Sep. 7, 19:00 0 0
mrs-mr.de 6 0,00€ 0 Sep. 7, 19:00 3 .com .de .fr 0
msfs2024.de 8 0,00€ 0 Sep. 7, 19:00 3 .com .de .fr 0
msraw.de 5 0,00€ 0 Sep. 7, 19:00 2 .com .de 2
ms-webservice.de 13 0,00€ 0 Sep. 7, 19:00 0 0
mth3.de 4 0,00€ 0 Sep. 7, 19:00 8 .com .de .info 0
mtsiebdruck.de 11 0,00€ 0 Sep. 7, 19:00 0 4
mtv-media.de 9 0,00€ 0 Sep. 7, 19:00 2 .com .mobi 0
muellmachtmaeuse.de 16 0,00€ 0 Sep. 7, 19:00 0 0
multigaming-germany.de 19 0,00€ 0 Sep. 7, 19:00 0 0
muskelmagazin.de 13 0,00€ 0 Sep. 7, 19:00 0 4
muskelninbewegung.de 17 0,00€ 0 Sep. 7, 19:00 2 .com .de 0
muskelprofi.de 11 0,00€ 0 Sep. 7, 19:00 2 .de .shop 4
muskelundfitness.de 16 0,00€ 0 Sep. 7, 19:00 0 4
mvz-sachsen.de 11 0,00€ 0 Sep. 7, 19:00 0 0
mybamboo-shop.de 13 0,00€ 0 Sep. 7, 19:00 0 0
mydigitalcards.de 14 0,00€ 0 Sep. 7, 19:00 5 .com .de .net 3
myessential-oel.de 15 0,00€ 0 Sep. 7, 19:00 0 0
mykuckuck.de 9 0,00€ 0 Sep. 7, 19:00 2 .com .de 0
my-mags.de 7 0,00€ 0 Sep. 7, 19:00 7 .blog .co.uk .com 0
my-mio.de 6 0,00€ 0 Sep. 7, 19:00 0 0
mysexbuy.de 8 0,00€ 0 Sep. 7, 19:00 0 3
myskin-iq.de 9 0,00€ 0 Sep. 7, 19:00 2 .com .de 0
myskiniq.de 8 0,00€ 0 Sep. 7, 19:00 4 .com .de .net 3
n54-tech.de 8 0,00€ 0 Sep. 7, 19:00 0 0
nacktes-rhizom.de 14 0,00€ 0 Sep. 7, 19:00 0 0
nadia3.de 6 0,00€ 0 Sep. 7, 19:00 0 0
nadine-freund.de 13 0,00€ 0 Sep. 7, 19:00 0 0
nadineleibinger.de 15 0,00€ 0 Sep. 7, 19:00 0 3
nadine-wettstein.de 16 0,00€ 0 Sep. 7, 19:00 0 0
nahkauf24.de 9 0,00€ 0 Sep. 7, 19:00 1 .com 0
natrial.de 7 0,00€ 0 Sep. 7, 19:00 1 .com 2
naturalhairs.de 12 0,00€ 0 Sep. 7, 19:00 2 .com .fr 2
natureblogg.de 11 0,00€ 0 Sep. 7, 19:00 0 3
naturkost-templin.de 17 0,00€ 0 Sep. 7, 19:00 0 0
natursteine-raemisch.de 20 0,00€ 0 Sep. 7, 19:00 0 0
nc-by.de 5 0,00€ 0 Sep. 7, 19:00 2 .com .net 0
neclean.de 7 0,00€ 0 Sep. 7, 19:00 3 .co.uk .com .net 2
neon-bit.de 8 0,00€ 0 Sep. 7, 19:00 1 .com 0
netzebw-events.de 14 0,00€ 0 Sep. 7, 19:00 0 0
netzwerktechnikgross.de 20 0,00€ 0 Sep. 7, 19:00 0 0
neue-hamburger-terrassen.de 24 0,00€ 0 Sep. 7, 19:00 0 0
new-consulting-council.de 22 0,00€ 0 Sep. 7, 19:00 1 .com 0
newsconsulting.de 14 0,00€ 0 Sep. 7, 19:00 1 .com 2
nextexpress.de 11 0,00€ 0 Sep. 7, 19:00 6 .asia .com .de 2
nicolai-consulting.de 18 0,00€ 0 Sep. 7, 19:00 0 0
nicolevanhirtum.de 15 0,00€ 0 Sep. 7, 19:00 4 .com .online .store 4
niebert-wohlrab.de 15 0,00€ 0 Sep. 7, 19:00 0 0
ninareithmeier.de 14 0,00€ 0 Sep. 7, 19:00 0 3
ninecasino0.de 11 0,00€ 0 Sep. 7, 19:00 4 .click .co.uk .com 0
njoyasteps.de 10 0,00€ 0 Sep. 7, 19:00 1 .com 0
njoyaway.de 8 0,00€ 0 Sep. 7, 19:00 1 .com 0
nmenterprises.de 13 0,00€ 0 Sep. 7, 19:00 5 .com .ltd .online 2
noagelimit.de 10 0,00€ 0 Sep. 7, 19:00 5 .co.uk .com .net 3
nomary.de 6 0,00€ 0 Sep. 7, 19:00 2 .com .fr 2
nonivy.de 6 0,00€ 0 Sep. 7, 19:00 1 .com 2
nouraviation.de 12 0,00€ 0 Sep. 7, 19:00 1 .com 0
nuernberg-schaedlingsbekaempfung.de 32 0,00€ 0 Sep. 7, 19:00 0 0
nutzfahrzeug-verkaufen.de 22 0,00€ 0 Sep. 7, 19:00 1 .com 0
oaksmoke.de 8 0,00€ 0 Sep. 7, 19:00 6 .co.uk .com .org 2
obstpiraten.de 11 0,00€ 0 Sep. 7, 19:00 0 0
occi-bio.de 8 0,00€ 0 Sep. 7, 19:00 2 .com .fr 0
12.801–12.900 of 29.606
Zurück
Oben